Weather History for KZZV - December, 2012

Change the Weather History Date:

Monday, December 10, 2012

  Actual Average Record
Temperature  
Mean Temperature 47 °F 34 °F  
Max Temperature 59 °F 42 °F 72 °F (1971)
Min Temperature 35 °F 26 °F -10 °F (1958)
Degree Days  
Heating Degree Days 18 31  
Month to date heating degree days 184 295  
Since 1 July heating degree days 1457 1436  
Cooling Degree Days 0 0  
Month to date cooling degree days 0 0  
Year to date cooling degree days 980 768  
Moisture  
Dew Point 43 °F    
Average Humidity 86    
Maximum Humidity 93    
Minimum Humidity 79    
Precipitation  
Precipitation 0.45 in 0.09 in - ()
Month to date precipitation 3.01 0.89  
Year to date precipitation 33.74 36.17  
Sea Level Pressure  
Sea Level Pressure 29.69 in    
Wind  
Wind Speed 8 mph (West)    
Max Wind Speed 20 mph    
Max Gust Speed 32 mph    
Visibility 7 miles    
Events Rain    
T = Trace of Precipitation, MM = Missing Value Source: NWS Daily Summary

Daily Weather History Graph

Daily Weather History Graph

Search for Another Location

Airport or City:

Trip Planner

Search our weather history database for the weather conditions in past years. The results will help you decide how hot, cold, wet, or windy it might be!

Date:

Astronomy

Dec. 10, 2012 Rise Set
Actual Time 7:38 AM EST 5:02 PM EST
Civil Twilight 7:08 AM EST 5:32 PM EST
Nautical Twilight 6:34 AM EST 6:06 PM EST
Astronomical Twilight 6:01 AM EST 6:39 PM EST
Moon 4:20 AM EST (12/10) 2:50 PM EST (12/10)
Length of Visible Light 10h 24m
Length of Day
9h 23m
Waning Crescent, 10% of the Moon is Illuminated
Dec 10
Waning Crescent
Dec 13
New
Dec 20
First Quarter
Dec 28
Full
Jan 4
Last Quarter

Hourly Weather History & Observations

Time (EST) Temp. Windchill Dew Point Humidity Pressure Visibility Wind Dir Wind Speed Gust Speed Precip Events Conditions
12:53 AM 59.0 °F - 55.0 °F 87% 29.68 in 10.0 mi SSW 17.3 mph 25.3 mph 0.00 in Rain Light Rain
1:06 AM 59.0 °F - 55.4 °F 88% 29.69 in 9.0 mi WSW 12.7 mph 18.4 mph 0.01 in Rain Light Rain
1:29 AM 57.2 °F - 53.6 °F 88% 29.70 in 10.0 mi WSW 12.7 mph 19.6 mph 0.01 in   Overcast
1:53 AM 55.9 °F - 53.1 °F 90% 29.70 in 10.0 mi SW 11.5 mph 18.4 mph 0.01 in Rain Light Rain
2:53 AM 55.0 °F - 52.0 °F 89% 29.68 in 10.0 mi South 9.2 mph - 0.02 in Rain Light Rain
3:53 AM 54.0 °F - 52.0 °F 93% 29.67 in 10.0 mi South 9.2 mph - 0.04 in   Mostly Cloudy
4:53 AM 54.0 °F - 52.0 °F 93% 29.66 in 10.0 mi SSW 8.1 mph - 0.00 in   Overcast
5:34 AM 53.6 °F - 51.8 °F 94% 29.66 in 10.0 mi SSW 6.9 mph - N/A   Overcast
5:53 AM 54.0 °F - 52.0 °F 93% 29.65 in 10.0 mi SSW 6.9 mph - N/A   Overcast
6:12 AM 53.6 °F - 53.6 °F 100% 29.65 in 9.0 mi SW 5.8 mph - 0.02 in Rain Light Rain
6:53 AM 54.0 °F - 53.1 °F 97% 29.65 in 10.0 mi SSW 6.9 mph - 0.02 in Rain Light Rain
7:40 AM 53.6 °F - 53.6 °F 100% 29.64 in 9.0 mi South 8.1 mph - N/A   Overcast
7:53 AM 54.0 °F - 53.1 °F 97% 29.65 in 9.0 mi SSW 8.1 mph - N/A   Overcast
8:20 AM 53.6 °F - 53.6 °F 100% 29.64 in 9.0 mi South 5.8 mph - N/A   Overcast
8:53 AM 55.0 °F - 53.1 °F 93% 29.64 in 10.0 mi Calm Calm - N/A   Overcast
9:10 AM 51.8 °F - 48.2 °F 88% 29.65 in 4.0 mi WNW 8.1 mph - 0.00 in Rain Light Rain
9:41 AM 50.0 °F - 48.2 °F 94% 29.64 in 2.5 mi NNW 9.2 mph - 0.01 in Rain Light Rain
9:53 AM 48.9 °F - 48.0 °F 97% 29.64 in 1.2 mi NNW 6.9 mph 17.3 mph 0.07 in Rain Heavy Rain
10:02 AM 50.0 °F - 48.2 °F 94% 29.65 in 2.5 mi NW 5.8 mph - 0.00 in Rain Light Rain
10:10 AM 50.0 °F - 48.2 °F 94% 29.65 in 5.0 mi WNW 8.1 mph - 0.00 in   Overcast
10:50 AM 48.2 °F - 46.4 °F 93% 29.64 in 1.8 mi NW 9.2 mph - 0.07 in Rain Heavy Rain
10:53 AM 48.9 °F - 46.9 °F 93% 29.64 in 1.5 mi WNW 8.1 mph - 0.08 in Rain Heavy Rain
11:00 AM 48.2 °F - 46.4 °F 93% 29.64 in 2.0 mi WNW 4.6 mph - 0.01 in Rain Light Rain
11:19 AM 48.2 °F - 46.4 °F 93% 29.64 in 4.0 mi WNW 3.5 mph - 0.04 in Rain Light Rain
11:53 AM 46.9 °F - 45.0 °F 93% 29.63 in 2.0 mi WNW 10.4 mph - 0.09 in Rain Rain
12:07 PM 46.4 °F 40.4 °F 44.6 °F 93% 29.65 in 4.0 mi West 13.8 mph - 0.01 in Rain Light Rain
12:13 PM 46.4 °F 41.5 °F 44.6 °F 93% 29.63 in 2.5 mi NW 10.4 mph 17.3 mph 0.03 in Rain Rain
12:23 PM 44.6 °F 42.2 °F 42.8 °F 93% 29.62 in 5.0 mi NW 4.6 mph - 0.03 in Rain Light Rain
12:50 PM 44.6 °F 39.2 °F 42.8 °F 93% 29.64 in 5.0 mi WNW 10.4 mph - 0.04 in Rain Light Rain
12:53 PM 45.0 °F 39.3 °F 43.0 °F 93% 29.64 in 5.0 mi NW 11.5 mph - 0.05 in Rain Light Rain
1:01 PM 44.6 °F 39.2 °F 42.8 °F 93% 29.63 in 4.0 mi NW 10.4 mph - 0.00 in Rain Light Rain
1:24 PM 42.8 °F 36.6 °F 39.2 °F 87% 29.64 in 4.0 mi NW 11.5 mph - 0.01 in Rain Light Rain
1:53 PM 41.0 °F 35.2 °F 39.0 °F 93% 29.66 in 7.0 mi NW 9.2 mph 19.6 mph 0.02 in   Overcast
2:04 PM 41.0 °F 33.9 °F 37.4 °F 87% 29.65 in 7.0 mi WNW 12.7 mph 18.4 mph N/A   Overcast
2:13 PM 41.0 °F 35.2 °F 37.4 °F 87% 29.64 in 8.0 mi NW 9.2 mph - N/A   Overcast
2:16 PM 41.0 °F 34.3 °F 37.4 °F 87% 29.65 in 8.0 mi NW 11.5 mph - N/A   Overcast
2:53 PM 39.9 °F 33.9 °F 35.1 °F 83% 29.67 in 9.0 mi NW 9.2 mph - N/A   Overcast
3:01 PM 39.2 °F 33.6 °F 35.6 °F 87% 29.65 in 10.0 mi NW 8.1 mph - N/A   Overcast
3:43 PM 39.2 °F 34.2 °F 35.6 °F 87% 29.68 in 10.0 mi NW 6.9 mph - 0.01 in   Overcast
3:53 PM 39.0 °F 34.0 °F 34.0 °F 82% 29.69 in 10.0 mi NW 6.9 mph - 0.01 in   Overcast
4:17 PM 39.2 °F 35.0 °F 33.8 °F 81% 29.70 in 10.0 mi WNW 5.8 mph - N/A   Overcast
4:53 PM 39.0 °F 32.8 °F 34.0 °F 82% 29.72 in 8.0 mi NW 9.2 mph - 0.00 in Rain Light Rain
5:53 PM 37.9 °F 35.5 °F 34.0 °F 86% 29.76 in 9.0 mi West 3.5 mph - 0.01 in   Overcast
6:16 PM 37.4 °F 32.8 °F 33.8 °F 87% 29.75 in 6.0 mi NW 5.8 mph - 0.01 in Rain Light Rain
6:53 PM 37.0 °F 31.6 °F 34.0 °F 89% 29.76 in 8.0 mi NW 6.9 mph - 0.02 in Rain Light Rain
7:13 PM 35.6 °F 31.7 °F 33.8 °F 93% 29.77 in 7.0 mi West 4.6 mph - 0.00 in   Overcast
7:25 PM 35.6 °F 32.8 °F 33.8 °F 93% 29.76 in 7.0 mi WNW 3.5 mph - 0.00 in   Overcast
7:40 PM 35.6 °F 31.7 °F 33.8 °F 93% 29.75 in 6.0 mi West 4.6 mph - 0.01 in Rain Light Rain
7:53 PM 36.0 °F 31.1 °F 33.1 °F 89% 29.77 in 7.0 mi West 5.8 mph - 0.01 in   Overcast
8:01 PM 35.6 °F 31.7 °F 33.8 °F 93% 29.77 in 7.0 mi West 4.6 mph - 0.00 in   Overcast
8:38 PM 35.6 °F 31.7 °F 33.8 °F 93% 29.77 in 6.0 mi SSW 4.6 mph - 0.00 in   Overcast
8:53 PM 35.1 °F 31.0 °F 34.0 °F 96% 29.79 in 5.0 mi West 4.6 mph - 0.00 in   Overcast
9:17 PM 35.6 °F 27.1 °F 33.8 °F 93% 29.82 in 6.0 mi WSW 12.7 mph - N/A   Overcast
9:53 PM 35.1 °F 28.6 °F 33.1 °F 92% 29.84 in 6.0 mi West 8.1 mph - N/A   Overcast
10:53 PM 35.1 °F 28.6 °F 32.0 °F 89% 29.86 in 5.0 mi West 8.1 mph - N/A   Overcast
11:53 PM 35.1 °F 29.3 °F 30.9 °F 85% 29.88 in 6.0 mi West 6.9 mph - N/A   Overcast